sat.trackr.live / text

‹ back to catalog

KUIPER-00451

NORAD 68945 · 2026-098AC

PAYLOAD ACTIVE UNKNOWN

§ Identity

Operator
Country
US
Launch date
2026-04-30
Launch site
FRGUI
Launch vehicle
Mass (kg)
RCS (m²)

External: N2YO · Heavens-Above · Gunter

§ Orbital elements

Epoch: 2026-05-25T00:00:02.000160Z

Period
94.13 min
Inclination
51.8781°
Eccentricity
0.0014218
Mean motion
15.29813921 rev/d
Perigee alt
466.6 km
Apogee alt
486.1 km
Semi-major
6,854.5 km
B*
1.4878e-3
RAAN
179.8530°
Arg perigee
64.3808°
Mean anomaly
174.5008°
Rev number
440

§ Raw data

KUIPER-004511 68945U 26098AC  26145.00002315  .00043601  00000+0  14878-2 0  99992 68945  51.8781 179.8530 0014218  64.3808 174.5008 15.29813921  4406

JSON: /api/v1/satellites/68945 · /tle

For live sub-satellite position, see the globe view (requires WebGL).

§ Visibility from observer

Set your observer location to see the next 7 days of passes ≥ 10°. The values pass through the URL so the page stays shareable.

No JS? Fill the form by hand. The geolocation button needs JavaScript.